TimeEDT,TemperatureF,Dew PointF,Humidity,Sea Level PressureIn,VisibilityMPH,Wind Direction,Wind SpeedMPH,Gust SpeedMPH,PrecipitationIn,Events,Conditions,WindDirDegrees,DateUTC
12:15 AM,54.7,45.0,70,30.23,10.0,SE,6.9,-,N/A,,Clear,130,2013-10-09 04:15:00
12:35 AM,54.5,44.4,69,30.23,10.0,ESE,8.1,-,N/A,,Clear,120,2013-10-09 04:35:00
12:55 AM,54.1,44.4,70,30.23,10.0,ESE,4.6,16.1,N/A,,Clear,120,2013-10-09 04:55:00
1:15 AM,53.2,44.4,72,30.22,10.0,SE,6.9,-,N/A,,Clear,130,2013-10-09 05:15:00
1:35 AM,53.2,44.1,71,30.23,10.0,SE,6.9,-,N/A,,Clear,140,2013-10-09 05:35:00
1:55 AM,53.1,43.7,71,30.23,10.0,ESE,5.8,-,N/A,,Clear,120,2013-10-09 05:55:00
2:15 AM,52.7,43.7,71,30.23,10.0,ESE,5.8,-,N/A,,Clear,120,2013-10-09 06:15:00
2:35 AM,52.7,43.5,71,30.22,10.0,SE,5.8,-,N/A,,Clear,130,2013-10-09 06:35:00
2:55 AM,53.1,42.8,68,30.23,10.0,Calm,Calm,-,N/A,,Clear,0,2013-10-09 06:55:00
3:15 AM,52.7,42.1,67,30.22,10.0,Calm,Calm,-,N/A,,Clear,0,2013-10-09 07:15:00
3:35 AM,52.3,41.5,67,30.22,10.0,ENE,4.6,-,N/A,,Clear,70,2013-10-09 07:35:00
3:55 AM,52.2,41.5,67,30.22,10.0,East,4.6,-,N/A,,Clear,100,2013-10-09 07:55:00
4:15 AM,52.9,40.6,63,30.22,10.0,ESE,5.8,-,N/A,,Clear,110,2013-10-09 08:15:00
4:35 AM,52.7,39.7,61,30.22,10.0,East,6.9,-,N/A,,Clear,100,2013-10-09 08:35:00
4:55 AM,52.9,38.5,58,30.22,10.0,ESE,5.8,-,N/A,,Clear,110,2013-10-09 08:55:00
5:15 AM,52.7,37.6,56,30.22,10.0,ESE,4.6,-,N/A,,Clear,120,2013-10-09 09:15:00
5:35 AM,52.0,37.4,58,30.23,10.0,ESE,4.6,-,N/A,,Clear,120,2013-10-09 09:35:00
5:55 AM,52.2,36.9,56,30.23,10.0,ESE,5.8,-,N/A,,Clear,120,2013-10-09 09:55:00
6:15 AM,52.0,37.2,57,30.22,10.0,ESE,4.6,-,N/A,,Clear,120,2013-10-09 10:15:00
6:35 AM,52.7,36.9,55,30.23,10.0,SE,4.6,-,N/A,,Clear,140,2013-10-09 10:35:00
6:55 AM,52.3,36.9,56,30.23,10.0,ESE,3.5,-,N/A,,Clear,110,2013-10-09 10:55:00
7:15 AM,51.1,37.8,60,30.23,10.0,Calm,Calm,-,N/A,,Clear,0,2013-10-09 11:15:00
7:35 AM,51.8,37.6,58,30.23,10.0,ESE,3.5,-,N/A,,Clear,110,2013-10-09 11:35:00
7:55 AM,51.3,37.8,60,30.23,10.0,ESE,3.5,-,N/A,,Clear,110,2013-10-09 11:55:00
8:15 AM,53.8,37.0,53,30.24,10.0,Calm,Calm,-,N/A,,Clear,0,2013-10-09 12:15:00
8:35 AM,54.5,38.3,54,30.25,10.0,Calm,Calm,-,N/A,,Clear,0,2013-10-09 12:35:00
8:55 AM,54.7,39.9,58,30.26,10.0,ESE,4.6,-,N/A,,Clear,120,2013-10-09 12:55:00
9:15 AM,56.7,40.5,55,30.26,10.0,ESE,4.6,-,N/A,,Clear,110,2013-10-09 13:15:00
9:35 AM,58.1,38.5,48,30.26,10.0,ESE,5.8,-,N/A,,Clear,110,2013-10-09 13:35:00
9:55 AM,59.7,39.4,47,30.26,10.0,ESE,5.8,-,N/A,,Clear,120,2013-10-09 13:55:00
10:15 AM,60.8,38.7,44,30.27,10.0,SE,4.6,-,N/A,,Clear,130,2013-10-09 14:15:00
10:35 AM,61.7,38.7,43,30.27,10.0,SE,6.9,-,N/A,,Clear,130,2013-10-09 14:35:00
10:55 AM,62.1,38.1,41,30.27,10.0,ESE,6.9,-,N/A,,Clear,120,2013-10-09 14:55:00
11:15 AM,63.0,39.9,43,30.27,10.0,SSE,3.5,-,N/A,,Clear,150,2013-10-09 15:15:00
11:35 AM,63.5,39.6,41,30.27,10.0,ESE,5.8,-,N/A,,Clear,110,2013-10-09 15:35:00
11:55 AM,64.4,39.6,40,30.27,10.0,SE,6.9,-,N/A,,Clear,130,2013-10-09 15:55:00
12:15 PM,65.1,40.1,40,30.27,10.0,SE,5.8,-,N/A,,Clear,140,2013-10-09 16:15:00
12:35 PM,65.8,37.2,35,30.26,10.0,ESE,6.9,-,N/A,,Clear,120,2013-10-09 16:35:00
12:55 PM,66.0,34.0,30,30.26,10.0,SSE,5.8,-,N/A,,Clear,160,2013-10-09 16:55:00
1:15 PM,66.9,35.2,31,30.25,10.0,SSE,8.1,-,N/A,,Clear,150,2013-10-09 17:15:00
1:35 PM,67.5,35.8,31,30.25,10.0,SE,6.9,-,N/A,,Clear,140,2013-10-09 17:35:00
1:55 PM,67.6,37.0,32,30.24,10.0,SE,5.8,-,N/A,,Clear,130,2013-10-09 17:55:00
2:15 PM,68.0,37.0,32,30.23,10.0,ESE,4.6,-,N/A,,Clear,120,2013-10-09 18:15:00
2:35 PM,68.2,36.5,31,30.22,10.0,SE,3.5,-,N/A,,Clear,130,2013-10-09 18:35:00
2:55 PM,68.5,36.7,31,30.21,10.0,Calm,Calm,-,N/A,,Clear,0,2013-10-09 18:55:00
3:15 PM,69.1,39.2,34,30.21,10.0,Calm,Calm,-,N/A,,Clear,0,2013-10-09 19:15:00
3:35 PM,69.6,39.6,33,30.20,10.0,Calm,Calm,-,N/A,,Clear,0,2013-10-09 19:35:00
3:55 PM,69.4,39.4,33,30.20,10.0,Calm,Calm,-,N/A,,Clear,0,2013-10-09 19:55:00
4:15 PM,69.8,38.8,32,30.20,10.0,North,3.5,-,N/A,,Clear,350,2013-10-09 20:15:00
4:55 PM,70.0,37.6,31,30.20,10.0,Calm,Calm,-,N/A,,Clear,0,2013-10-09 20:55:00
5:15 PM,70.2,38.1,31,30.19,10.0,Calm,Calm,-,N/A,,Clear,0,2013-10-09 21:15:00
5:35 PM,69.8,37.2,30,30.19,10.0,Calm,Calm,-,N/A,,Clear,0,2013-10-09 21:35:00
5:55 PM,69.3,37.9,32,30.19,10.0,North,3.5,-,N/A,,Clear,360,2013-10-09 21:55:00
6:15 PM,68.5,39.0,34,30.19,10.0,NNE,4.6,-,N/A,,Clear,30,2013-10-09 22:15:00
6:35 PM,67.1,38.5,35,30.19,10.0,NE,4.6,-,N/A,,Clear,50,2013-10-09 22:35:00
6:55 PM,65.7,37.6,36,30.19,10.0,ENE,4.6,-,N/A,,Clear,60,2013-10-09 22:55:00
7:15 PM,63.1,40.1,43,30.20,10.0,East,3.5,-,N/A,,Clear,90,2013-10-09 23:15:00
7:55 PM,61.2,41.4,48,30.20,10.0,Calm,Calm,-,N/A,,Clear,0,2013-10-09 23:55:00
8:15 PM,61.3,40.1,46,30.21,10.0,Calm,Calm,-,N/A,,Clear,0,2013-10-10 00:15:00
8:35 PM,60.3,40.1,47,30.21,10.0,ESE,3.5,-,N/A,,Clear,110,2013-10-10 00:35:00
8:55 PM,60.4,39.2,45,30.21,10.0,Calm,Calm,-,N/A,,Clear,0,2013-10-10 00:55:00
9:15 PM,59.4,39.7,48,30.21,10.0,ENE,4.6,-,N/A,,Clear,60,2013-10-10 01:15:00
9:35 PM,57.4,41.0,54,30.21,10.0,Calm,Calm,-,N/A,,Clear,0,2013-10-10 01:35:00
9:55 PM,57.2,40.8,54,30.21,10.0,ENE,4.6,-,N/A,,Clear,60,2013-10-10 01:55:00
10:15 PM,56.7,40.8,55,30.21,10.0,NE,6.9,-,N/A,,Clear,50,2013-10-10 02:15:00
10:35 PM,56.1,41.0,57,30.21,10.0,ENE,8.1,-,N/A,,Clear,60,2013-10-10 02:35:00
10:55 PM,55.8,40.6,57,30.21,10.0,NE,9.2,-,N/A,,Clear,50,2013-10-10 02:55:00
11:15 PM,54.7,40.8,60,30.20,10.0,ENE,3.5,-,N/A,,Clear,60,2013-10-10 03:15:00
11:35 PM,54.1,41.0,61,30.20,10.0,Calm,Calm,-,N/A,,Clear,0,2013-10-10 03:35:00
11:55 PM,55.4,39.9,56,30.19,10.0,Calm,Calm,-,N/A,,Clear,0,2013-10-10 03:55:00